| time (UTC) | temp F | wind direction | speed MPH | gust MPH | rain 1hr in | rain 24hr in | rain mn in | humidity % | barometer mb |
| 20260901152445 | 55 | 177 | 4.0 | 6.0 | 0.00 | 0.00 | 0.00 | 91 | 1002.9 |
| 20260901151940 | 55 | 172 | 4.0 | 6.0 | 0.00 | 0.00 | 0.00 | 91 | 1003.0 |
| 20260901151426 | 55 | 173 | 4.0 | 5.0 | 0.00 | 0.00 | 0.00 | 91 | 1003.2 |
| 20260901151133 | 55 | 176 | 4.0 | 5.0 | 0.00 | 0.00 | 0.00 | 91 | 1003.1 |
| 20260901150408 | 56 | 180 | 4.0 | 6.0 | 0.00 | 0.00 | 0.00 | 90 | 1003.2 |
| 20260901145853 | 56 | 175 | 3.0 | 6.0 | 0.00 | 0.00 | 0.00 | 90 | 1003.2 |
| 20260901145348 | 56 | 184 | 4.0 | 5.0 | 0.00 | 0.00 | 0.00 | 89 | 1003.2 |
| 20260901144823 | 56 | 184 | 4.0 | 5.0 | 0.00 | 0.00 | 0.00 | 89 | 1003.2 |
| 20260901144319 | 56 | 180 | 4.0 | 5.0 | 0.00 | 0.00 | 0.00 | 89 | 1003.3 |
| 20260901144038 | 56 | 191 | 4.0 | 6.0 | 0.00 | 0.00 | 0.00 | 89 | 1003.3 |
| 20260901143311 | 56 | 184 | 4.0 | 6.0 | 0.00 | 0.00 | 0.00 | 89 | 1003.1 |
| 20260901143032 | 56 | 178 | 4.0 | 6.0 | 0.00 | 0.00 | 0.00 | 89 | 1003.3 |
| 20260901142253 | 56 | 176 | 4.0 | 5.0 | 0.00 | 0.00 | 0.00 | 89 | 1003.4 |
| 20260901141729 | 56 | 182 | 3.0 | 5.0 | 0.00 | 0.00 | 0.00 | 89 | 1003.4 |
| 20260901141435 | 56 | 182 | 4.0 | 5.0 | 0.00 | 0.00 | 0.00 | 89 | 1003.4 |
| 20260901140710 | 56 | 178 | 4.0 | 5.0 | 0.00 | 0.00 | 0.00 | 88 | 1003.4 |
| 20260901140206 | 56 | 174 | 4.0 | 5.0 | 0.00 | 0.00 | 0.00 | 88 | 1003.6 |
| 20260901135702 | 56 | 176 | 4.0 | 5.0 | 0.00 | 0.00 | 0.00 | 88 | 1003.6 |
| 20260901135157 | 56 | 179 | 4.0 | 5.0 | 0.00 | 0.00 | 0.00 | 88 | 1003.8 |
| 20260901134649 | 57 | 180 | 4.0 | 5.0 | 0.00 | 0.00 | 0.00 | 87 | 1003.6 |
| 20260901134149 | 57 | 179 | 4.0 | 5.0 | 0.00 | 0.00 | 0.00 | 87 | 1003.7 |
| 20260901133626 | 57 | 174 | 5.0 | 5.0 | 0.00 | 0.00 | 0.00 | 86 | 1003.8 |
| 20260901133121 | 58 | 180 | 4.0 | 5.0 | 0.00 | 0.00 | 0.00 | 86 | 1003.8 |
| 20260901132617 | 58 | 177 | 4.0 | 5.0 | 0.00 | 0.00 | 0.00 | 86 | 1003.7 |
| 20260901132112 | 58 | 180 | 4.0 | 5.0 | 0.00 | 0.00 | 0.00 | 86 | 1003.6 |
| 20260901131559 | 57 | 176 | 4.0 | 5.0 | 0.00 | 0.00 | 0.00 | 86 | 1003.8 |
| 20260901131048 | 57 | 169 | 4.0 | 5.0 | 0.00 | 0.00 | 0.00 | 86 | 1003.8 |
| 20260901130548 | 58 | 177 | 3.0 | 5.0 | 0.00 | 0.00 | 0.00 | 86 | 1003.8 |
| 20260901130333 | 58 | 172 | 4.0 | 5.0 | 0.00 | 0.00 | 0.00 | 85 | 1003.9 |
| 20260901125549 | 58 | 171 | 4.0 | 5.0 | 0.00 | 0.00 | 0.00 | 84 | 1003.9 |
| 20260901125047 | 58 | 188 | 4.0 | 5.0 | 0.00 | 0.00 | 0.00 | 84 | 1004.0 |
| 20260901124533 | 58 | 173 | 5.0 | 5.0 | 0.00 | 0.00 | 0.00 | 84 | 1003.9 |
| 20260901124029 | 58 | 175 | 4.0 | 5.0 | 0.00 | 0.00 | 0.00 | 84 | 1003.9 |
| 20260901123524 | 59 | 190 | 3.0 | 5.0 | 0.00 | 0.00 | 0.00 | 83 | 1003.9 |
| 20260901123021 | 59 | 185 | 4.0 | 5.0 | 0.00 | 0.00 | 0.00 | 83 | 1004.1 |
| 20260901122516 | 59 | 172 | 4.0 | 5.0 | 0.00 | 0.00 | 0.00 | 82 | 1004.1 |
| 20260901122012 | 59 | 166 | 5.0 | 5.0 | 0.00 | 0.00 | 0.00 | 82 | 1004.0 |
| 20260901121508 | 60 | 165 | 5.0 | 5.0 | 0.00 | 0.00 | 0.00 | 81 | 1004.1 |
| 20260901120954 | 59 | 179 | 4.0 | 5.0 | 0.00 | 0.00 | 0.00 | 81 | 1004.1 |
| 20260901120446 | 59 | 195 | 4.0 | 6.0 | 0.00 | 0.00 | 0.00 | 82 | 1004.1 |
| 20260901115946 | 59 | 194 | 4.0 | 6.0 | 0.00 | 0.00 | 0.00 | 82 | 1004.0 |
| 20260901115446 | 60 | 182 | 5.0 | 6.0 | 0.00 | 0.00 | 0.00 | 81 | 1004.1 |
| 20260901114915 | 60 | 182 | 4.0 | 6.0 | 0.00 | 0.00 | 0.00 | 81 | 1004.3 |
| 20260901114412 | 60 | 176 | 4.0 | 6.0 | 0.00 | 0.00 | 0.00 | 81 | 1004.2 |
| 20260901113857 | 60 | 183 | 4.0 | 6.0 | 0.00 | 0.00 | 0.00 | 81 | 1004.2 |
| 20260901113345 | 60 | 180 | 4.0 | 6.0 | 0.00 | 0.00 | 0.00 | 81 | 1004.1 |
| 20260901112845 | 60 | 182 | 4.0 | 6.0 | 0.00 | 0.00 | 0.00 | 81 | 1004.2 |
| 20260901112334 | 60 | 185 | 3.0 | 6.0 | 0.00 | 0.00 | 0.00 | 81 | 1004.2 |
| 20260901111814 | 60 | 185 | 4.0 | 7.0 | 0.00 | 0.00 | 0.00 | 81 | 1004.2 |
| 20260901111537 | 60 | 182 | 4.0 | 7.0 | 0.00 | 0.00 | 0.00 | 81 | 1004.3 |
| 20260901110809 | 60 | 176 | 5.0 | 6.0 | 0.00 | 0.00 | 0.00 | 81 | 1004.3 |
| 20260901110246 | 60 | 193 | 4.0 | 6.0 | 0.00 | 0.00 | 0.00 | 81 | 1004.2 |
| 20260901105744 | 60 | 175 | 5.0 | 7.0 | 0.00 | 0.00 | 0.00 | 81 | 1004.3 |
| 20260901105236 | 60 | 189 | 4.0 | 7.0 | 0.00 | 0.00 | 0.00 | 82 | 1004.3 |
| 20260901104732 | 60 | 185 | 3.0 | 7.0 | 0.00 | 0.00 | 0.00 | 82 | 1004.3 |
| 20260901104452 | 61 | 177 | 6.0 | 8.0 | 0.00 | 0.00 | 0.00 | 81 | 1004.4 |
| 20260901103713 | 61 | 179 | 4.0 | 8.0 | 0.00 | 0.00 | 0.00 | 81 | 1004.1 |
| 20260901103428 | 60 | 182 | 4.0 | 6.0 | 0.00 | 0.00 | 0.00 | 82 | 1004.4 |
| 20260901102706 | 60 | 192 | 4.0 | 6.0 | 0.00 | 0.00 | 0.00 | 82 | 1004.3 |
| 20260901102143 | 60 | 183 | 5.0 | 6.0 | 0.00 | 0.00 | 0.00 | 81 | 1004.2 |
| 20260901101644 | 60 | 170 | 4.0 | 6.0 | 0.00 | 0.00 | 0.00 | 81 | 1004.1 |
| 20260901101143 | 60 | 180 | 4.0 | 6.0 | 0.00 | 0.00 | 0.00 | 81 | 1004.1 |
| 20260901100636 | 60 | 181 | 4.0 | 6.0 | 0.00 | 0.00 | 0.00 | 81 | 1004.2 |
| 20260901100122 | 60 | 185 | 3.0 | 6.0 | 0.00 | 0.00 | 0.00 | 82 | 1004.2 |
| 20260901095608 | 60 | 170 | 5.0 | 6.0 | 0.00 | 0.00 | 0.00 | 82 | 1004.2 |
| 20260901095053 | 60 | 192 | 3.0 | 6.0 | 0.00 | 0.00 | 0.00 | 83 | 1004.3 |
| 20260901094542 | 60 | 180 | 6.0 | 6.0 | 0.00 | 0.00 | 0.00 | 83 | 1004.1 |
| 20260901094042 | 60 | 180 | 4.0 | 5.0 | 0.00 | 0.00 | 0.00 | 83 | 1004.0 |
| 20260901093541 | 60 | 188 | 3.0 | 6.0 | 0.00 | 0.00 | 0.00 | 83 | 1004.1 |
| 20260901093037 | 60 | 174 | 5.0 | 6.0 | 0.00 | 0.00 | 0.00 | 83 | 1004.0 |
| 20260901092743 | 60 | 180 | 4.0 | 5.0 | 0.00 | 0.00 | 0.00 | 84 | 1004.1 |
| 20260901092247 | 59 | 179 | 4.0 | 5.0 | 0.00 | 0.00 | 0.00 | 84 | 1004.0 |
| 20260901091736 | 60 | 179 | 4.0 | 6.0 | 0.00 | 0.00 | 0.00 | 84 | 1004.0 |
| 20260901091453 | 60 | 178 | 4.0 | 6.0 | 0.00 | 0.00 | 0.00 | 84 | 1004.0 |
| 20260901090517 | 60 | 184 | 4.0 | 6.0 | 0.00 | 0.00 | 0.00 | 85 | 1004.1 |
| 20260901090144 | 59 | 173 | 4.0 | 5.0 | 0.00 | 0.00 | 0.00 | 86 | 1004.1 |
| 20260901084941 | 60 | 174 | 5.0 | 5.0 | 0.00 | 0.00 | 0.00 | 85 | 1004.2 |
| 20260901084658 | 60 | 170 | 4.0 | 5.0 | 0.00 | 0.00 | 0.00 | 85 | 1004.1 |
| 20260901083932 | 60 | 341 | 2.0 | 4.0 | 0.00 | 0.00 | 0.00 | 84 | 1004.2 |
| 20260901083417 | 61 | 23 | 2.0 | 4.0 | 0.00 | 0.00 | 0.00 | 83 | 1004.2 |
| 20260901082913 | 61 | 10 | 2.0 | 4.0 | 0.00 | 0.00 | 0.00 | 82 | 1004.0 |
| 20260901082409 | 62 | 354 | 2.0 | 4.0 | 0.00 | 0.00 | 0.00 | 81 | 1004.0 |
| 20260901081844 | 62 | 17 | 2.0 | 4.0 | 0.00 | 0.00 | 0.00 | 80 | 1004.1 |
| 20260901081330 | 62 | 333 | 2.0 | 4.0 | 0.00 | 0.00 | 0.00 | 79 | 1004.1 |
| 20260901080816 | 63 | 31 | 2.0 | 4.0 | 0.00 | 0.00 | 0.00 | 79 | 1003.9 |
| 20260901080312 | 63 | 35 | 2.0 | 4.0 | 0.00 | 0.00 | 0.00 | 79 | 1003.9 |
| 20260901075807 | 63 | 33 | 3.0 | 4.0 | 0.00 | 0.00 | 0.00 | 79 | 1004.0 |
| 20260901075307 | 63 | 1 | 3.0 | 4.0 | 0.00 | 0.00 | 0.00 | 78 | 1003.9 |
| 20260901074759 | 63 | 20 | 2.0 | 4.0 | 0.00 | 0.00 | 0.00 | 78 | 1003.9 |
| 20260901074256 | 64 | 35 | 2.0 | 4.0 | 0.00 | 0.00 | 0.00 | 78 | 1003.7 |
| 20260901073740 | 64 | 353 | 3.0 | 4.0 | 0.00 | 0.00 | 0.00 | 77 | 1003.8 |
| 20260901073238 | 64 | 14 | 4.0 | 4.0 | 0.00 | 0.00 | 0.00 | 77 | 1003.5 |
| 20260901072919 | 64 | 32 | 3.0 | 4.0 | 0.00 | 0.00 | 0.00 | 76 | 1003.7 |
| 20260901071713 | 65 | 55 | 2.0 | 6.0 | 0.00 | 0.00 | 0.00 | 76 | 1003.5 |
| 20260901071208 | 65 | 356 | 2.0 | 6.0 | 0.00 | 0.00 | 0.00 | 75 | 1003.5 |
| 20260901070706 | 66 | 344 | 3.0 | 5.0 | 0.00 | 0.00 | 0.00 | 75 | 1003.5 |
| 20260901070149 | 66 | 343 | 2.0 | 5.0 | 0.00 | 0.00 | 0.00 | 75 | 1003.6 |
| 20260901065637 | 66 | 72 | 3.0 | 6.0 | 0.00 | 0.00 | 0.00 | 74 | 1003.5 |
| 20260901065137 | 66 | 30 | 4.0 | 6.0 | 0.00 | 0.00 | 0.00 | 75 | 1003.5 |
| 20260901064851 | 67 | 6 | 2.0 | 5.0 | 0.00 | 0.00 | 0.00 | 74 | 1003.5 |
| 20260901064107 | 67 | 22 | 2.0 | 6.0 | 0.00 | 0.00 | 0.00 | 74 | 1003.4 |
| 20260901063558 | 67 | 0 | 2.0 | 6.0 | 0.00 | 0.00 | 0.00 | 74 | 1003.5 |
| 20260901063053 | 67 | 12 | 2.0 | 6.0 | 0.00 | 0.00 | 0.00 | 74 | 1003.4 |
| 20260901062744 | 67 | 334 | 4.0 | 6.0 | 0.00 | 0.00 | 0.00 | 73 | 1003.4 |
| 20260901062015 | 67 | 54 | 3.0 | 7.0 | 0.00 | 0.00 | 0.00 | 72 | 1003.4 |
| 20260901061510 | 68 | 346 | 2.0 | 7.0 | 0.00 | 0.00 | 0.00 | 72 | 1003.4 |
| 20260901061006 | 68 | 350 | 4.0 | 7.0 | 0.00 | 0.00 | 0.00 | 71 | 1003.4 |
| 20260901060500 | 68 | 17 | 2.0 | 7.0 | 0.00 | 0.00 | 0.00 | 71 | 1003.3 |
| 20260901055956 | 68 | 73 | 5.0 | 6.0 | 0.00 | 0.00 | 0.00 | 70 | 1003.4 |
| 20260901055705 | 68 | 4 | 4.0 | 6.0 | 0.00 | 0.00 | 0.00 | 70 | 1003.5 |
| 20260901054938 | 69 | 46 | 2.0 | 6.0 | 0.00 | 0.00 | 0.00 | 70 | 1003.5 |
| 20260901054640 | 69 | 23 | 4.0 | 6.0 | 0.00 | 0.00 | 0.00 | 70 | 1003.6 |
| 20260901053658 | 69 | 54 | 1.0 | 8.0 | 0.00 | 0.00 | 0.00 | 69 | 1003.6 |
| 20260901053142 | 69 | 11 | 4.0 | 8.0 | 0.00 | 0.00 | 0.00 | 69 | 1003.5 |
| 20260901052414 | 69 | 14 | 3.0 | 6.0 | 0.00 | 0.00 | 0.00 | 71 | 1003.5 |
| 20260901051909 | 69 | 9 | 2.0 | 6.0 | 0.00 | 0.00 | 0.00 | 71 | 1003.6 |
| 20260901051405 | 69 | 23 | 2.0 | 6.0 | 0.00 | 0.00 | 0.00 | 70 | 1003.7 |
| 20260901050851 | 68 | 19 | 3.0 | 6.0 | 0.00 | 0.00 | 0.00 | 72 | 1003.6 |
| 20260901050347 | 68 | 33 | 4.0 | 6.0 | 0.00 | 0.00 | 0.00 | 73 | 1003.8 |
| 20260901045832 | 68 | 48 | 0.0 | 6.0 | 0.00 | 0.00 | 0.00 | 72 | 1004.1 |
| 20260901045318 | 68 | 52 | 3.0 | 6.0 | 0.00 | 0.00 | 0.00 | 72 | 1003.8 |
| 20260901044814 | 68 | 19 | 2.0 | 6.0 | 0.00 | 0.00 | 0.00 | 72 | 1003.9 |
| 20260901044310 | 69 | 9 | 2.0 | 6.0 | 0.00 | 0.00 | 0.00 | 70 | 1004.2 |
| 20260901043805 | 69 | 317 | 2.0 | 6.0 | 0.00 | 0.00 | 0.00 | 70 | 1004.1 |
| 20260901043302 | 69 | 339 | 3.0 | 6.0 | 0.00 | 0.00 | 0.00 | 72 | 1004.3 |
| 20260901042746 | 69 | 55 | 3.0 | 6.0 | 0.00 | 0.00 | 0.00 | 71 | 1004.3 |
| 20260901042243 | 69 | 9 | 3.0 | 6.0 | 0.00 | 0.00 | 0.00 | 71 | 1004.4 |
| 20260901041738 | 69 | 61 | 3.0 | 6.0 | 0.00 | 0.00 | 0.00 | 73 | 1004.5 |
| 20260901041224 | 69 | 30 | 4.0 | 6.0 | 0.00 | 0.00 | 0.00 | 71 | 1004.6 |
| 20260901040936 | 70 | 343 | 3.0 | 6.0 | 0.00 | 0.00 | 0.00 | 71 | 1004.5 |
| 20260901040216 | 71 | 17 | 3.0 | 6.0 | 0.00 | 0.00 | 0.00 | 68 | 1004.8 |
| 20260901035940 | 70 | 19 | 3.0 | 6.0 | 0.00 | 0.00 | 0.00 | 69 | 1004.8 |
| 20260901035202 | 71 | 28 | 3.0 | 8.0 | 0.00 | 0.00 | 0.00 | 69 | 1004.8 |
| 20260901034653 | 71 | 39 | 3.0 | 8.0 | 0.00 | 0.00 | 0.00 | 67 | 1005.0 |
| 20260901034411 | 71 | 355 | 3.0 | 5.0 | 0.00 | 0.00 | 0.00 | 67 | 1004.9 |
| 20260901033901 | 69 | 356 | 3.0 | 5.0 | 0.00 | 0.00 | 0.00 | 67 | 1005.1 |
| 20260901033132 | 69 | 350 | 3.0 | 4.0 | 0.00 | 0.00 | 0.00 | 67 | 1005.1 |
| 20260901032631 | 69 | 346 | 2.0 | 4.0 | 0.00 | 0.00 | 0.00 | 67 | 1005.0 |
| 20260901032132 | 70 | 22 | 1.0 | 4.0 | 0.00 | 0.00 | 0.00 | 69 | 1005.2 |
| 20260901031620 | 70 | 358 | 2.0 | 4.0 | 0.00 | 0.00 | 0.00 | 66 | 1005.4 |
| 20260901031115 | 70 | 10 | 2.0 | 4.0 | 0.00 | 0.00 | 0.00 | 68 | 1005.5 |
| 20260901030611 | 71 | 5 | 2.0 | 4.0 | 0.00 | 0.00 | 0.00 | 68 | 1005.5 |
| 20260901030329 | 70 | 352 | 2.0 | 4.0 | 0.00 | 0.00 | 0.00 | 65 | 1005.5 |
| 20260901025603 | 70 | 22 | 3.0 | 4.0 | 0.00 | 0.00 | 0.00 | 68 | 1005.8 |
| 20260901025059 | 70 | 11 | 2.0 | 4.0 | 0.00 | 0.00 | 0.00 | 69 | 1005.7 |
| 20260901024553 | 72 | 33 | 2.0 | 5.0 | 0.00 | 0.00 | 0.00 | 67 | 1005.8 |
| 20260901024050 | 71 | 89 | 1.0 | 8.0 | 0.00 | 0.00 | 0.00 | 68 | 1006.0 |
| 20260901023546 | 71 | 352 | 4.0 | 8.0 | 0.00 | 0.00 | 0.00 | 66 | 1006.0 |
| 20260901023040 | 71 | 10 | 3.0 | 6.0 | 0.00 | 0.00 | 0.00 | 66 | 1006.2 |
| 20260901022515 | 70 | 14 | 2.0 | 5.0 | 0.00 | 0.00 | 0.00 | 67 | 1006.3 |
| 20260901022011 | 70 | 15 | 4.0 | 5.0 | 0.00 | 0.00 | 0.00 | 66 | 1006.5 |
| 20260901021508 | 71 | 2 | 2.0 | 5.0 | 0.00 | 0.00 | 0.00 | 67 | 1006.6 |
| 20260901021004 | 72 | 23 | 3.0 | 4.0 | 0.00 | 0.00 | 0.00 | 67 | 1006.6 |
| 20260901020500 | 73 | 358 | 2.0 | 6.0 | 0.00 | 0.00 | 0.00 | 65 | 1006.8 |
| 20260901015955 | 73 | 44 | 2.0 | 6.0 | 0.00 | 0.00 | 0.00 | 65 | 1007.0 |
| 20260901015450 | 73 | 348 | 4.0 | 6.0 | 0.00 | 0.00 | 0.00 | 67 | 1007.1 |
| 20260901014946 | 73 | 6 | 4.0 | 5.0 | 0.00 | 0.00 | 0.00 | 64 | 1007.2 |
| 20260901014442 | 72 | 24 | 3.0 | 4.0 | 0.00 | 0.00 | 0.00 | 66 | 1007.5 |
| 20260901013928 | 72 | 18 | 2.0 | 4.0 | 0.00 | 0.00 | 0.00 | 66 | 1007.5 |
| 20260901013413 | 72 | 337 | 2.0 | 5.0 | 0.00 | 0.00 | 0.00 | 64 | 1007.7 |
| 20260901012858 | 73 | 51 | 3.0 | 5.0 | 0.00 | 0.00 | 0.00 | 66 | 1007.6 |
| 20260901012841 | 74 | 5 | 2.0 | 5.0 | 0.00 | 0.00 | 0.00 | 64 | 1007.8 |
| 20260901011851 | 72 | 2 | 2.0 | 4.0 | 0.00 | 0.00 | 0.00 | 67 | 1007.9 |
| 20260901011347 | 70 | 0 | 1.0 | 5.0 | 0.00 | 0.00 | 0.00 | 70 | 1008.0 |
| 20260901010828 | 70 | 10 | 2.0 | 5.0 | 0.00 | 0.00 | 0.00 | 69 | 1008.0 |
| 20260901010328 | 70 | 34 | 1.0 | 4.0 | 0.00 | 0.00 | 0.00 | 70 | 1008.1 |
| 20260901005824 | 71 | 28 | 2.0 | 5.0 | 0.00 | 0.00 | 0.00 | 69 | 1008.2 |
| 20260901005546 | 72 | 15 | 4.0 | 5.0 | 0.00 | 0.00 | 0.00 | 65 | 1008.2 |
| 20260901004816 | 73 | 5 | 2.0 | 5.0 | 0.00 | 0.00 | 0.00 | 64 | 1008.2 |
| 20260901004531 | 72 | 9 | 3.0 | 5.0 | 0.00 | 0.00 | 0.00 | 65 | 1008.3 |
| 20260901003812 | 72 | 13 | 3.0 | 5.0 | 0.00 | 0.00 | 0.00 | 66 | 1008.3 |
| 20260901003310 | 74 | 26 | 4.0 | 5.0 | 0.00 | 0.00 | 0.00 | 64 | 1008.7 |
| 20260901002754 | 72 | 13 | 2.0 | 4.0 | 0.00 | 0.00 | 0.00 | 66 | 1008.7 |
| 20260901002241 | 72 | 340 | 4.0 | 4.0 | 0.00 | 0.00 | 0.00 | 64 | 1008.7 |
| 20260901001737 | 71 | 286 | 2.0 | 4.0 | 0.00 | 0.00 | 0.00 | 66 | 1008.9 |
| 20260901001223 | 71 | 21 | 2.0 | 6.0 | 0.00 | 0.00 | 0.00 | 67 | 1009.1 |
| 20260901000718 | 72 | 4 | 2.0 | 6.0 | 0.00 | 0.00 | 0.00 | 66 | 1009.3 |
| 20260901000214 | 71 | 355 | 3.0 | 6.0 | 0.00 | 0.00 | 0.00 | 66 | 1009.4 |
| 20260831235710 | 70 | 354 | 4.0 | 5.0 | 0.00 | 0.00 | 0.00 | 68 | 1009.4 |
| 20260831235206 | 69 | 4 | 1.0 | 4.0 | 0.00 | 0.00 | 0.00 | 69 | 1009.4 |
| 20260831234655 | 69 | 1 | 2.0 | 4.0 | 0.00 | 0.00 | 0.00 | 69 | 1009.3 |
| 20260831234156 | 69 | 17 | 1.0 | 5.0 | 0.00 | 0.00 | 0.00 | 71 | 1009.4 |
| 20260831233656 | 69 | 346 | 2.0 | 5.0 | 0.00 | 0.00 | 0.00 | 69 | 1009.4 |
| 20260831233154 | 69 | 336 | 4.0 | 4.0 | 0.00 | 0.00 | 0.00 | 70 | 1009.5 |
| 20260831232625 | 69 | 43 | 2.0 | 4.0 | 0.00 | 0.00 | 0.00 | 70 | 1009.4 |
| 20260831232125 | 69 | 3 | 2.0 | 6.0 | 0.00 | 0.00 | 0.00 | 69 | 1009.5 |
| 20260831231611 | 68 | 329 | 2.0 | 6.0 | 0.00 | 0.00 | 0.00 | 72 | 1009.5 |
| 20260831231057 | 68 | 11 | 2.0 | 4.0 | 0.00 | 0.00 | 0.00 | 71 | 1009.8 |
| 20260831230551 | 67 | 318 | 4.0 | 4.0 | 0.00 | 0.00 | 0.00 | 73 | 1009.6 |
| 20260831230100 | 65 | 14 | 2.0 | 4.0 | 0.00 | 0.00 | 0.00 | 77 | 1009.7 |
| 20260831225542 | 65 | 22 | 2.0 | 5.0 | 0.00 | 0.00 | 0.00 | 79 | 1009.6 |
| 20260831225306 | 62 | 3 | 2.0 | 5.0 | 0.00 | 0.00 | 0.00 | 83 | 1009.8 |
| 20260831224528 | 61 | 355 | 3.0 | 5.0 | 0.00 | 0.00 | 0.00 | 84 | 1009.7 |
| 20260831224024 | 60 | 4 | 4.0 | 5.0 | 0.00 | 0.00 | 0.00 | 84 | 1009.8 |
| 20260831223511 | 61 | 17 | 2.0 | 5.0 | 0.00 | 0.00 | 0.00 | 86 | 1009.6 |
| 20260831223007 | 61 | 0 | 3.0 | 4.0 | 0.00 | 0.00 | 0.00 | 86 | 1009.6 |
| 20260831222502 | 59 | 30 | 2.0 | 5.0 | 0.00 | 0.00 | 0.00 | 93 | 1009.8 |
| 20260831222006 | 58 | 351 | 3.0 | 5.0 | 0.00 | 0.00 | 0.00 | 95 | 1009.6 |
| 20260831221453 | 59 | 337 | 3.0 | 5.0 | 0.00 | 0.00 | 0.00 | 96 | 1009.5 |
| 20260831220953 | 60 | 351 | 2.0 | 4.0 | 0.00 | 0.00 | 0.00 | 97 | 1009.4 |
| 20260831220453 | 59 | 353 | 2.0 | 4.0 | 0.00 | 0.00 | 0.00 | 98 | 1009.5 |
| 20260831215952 | 57 | 6 | 1.0 | 5.0 | 0.00 | 0.00 | 0.00 | 98 | 1009.1 |
| 20260831215438 | 56 | 343 | 2.0 | 5.0 | 0.00 | 0.00 | 0.00 | 98 | 1009.3 |
| 20260831214936 | 56 | 335 | 2.0 | 5.0 | 0.00 | 0.00 | 0.00 | 98 | 1009.4 |
| 20260831214432 | 57 | 333 | 2.0 | 4.0 | 0.00 | 0.00 | 0.00 | 98 | 1009.2 |
| 20260831214150 | 58 | 351 | 3.0 | 4.0 | 0.00 | 0.00 | 0.00 | 99 | 1009.1 |
| 20260831213413 | 57 | 343 | 1.0 | 4.0 | 0.00 | 0.00 | 0.00 | 99 | 1009.1 |
| 20260831212909 | 56 | 43 | 1.0 | 4.0 | 0.00 | 0.00 | 0.00 | 99 | 1009.1 |
| 20260831212355 | 54 | 345 | 2.0 | 4.0 | 0.00 | 0.00 | 0.00 | 99 | 1008.9 |
| 20260831211852 | 53 | 349 | 1.0 | 4.0 | 0.00 | 0.00 | 0.00 | 99 | 1009.0 |
| 20260831211347 | 53 | 351 | 2.0 | 3.0 | 0.00 | 0.00 | 0.00 | 99 | 1009.0 |
| 20260831210843 | 53 | 337 | 2.0 | 3.0 | 0.00 | 0.00 | 0.00 | 99 | 1009.0 |
| 20260831210338 | 53 | 353 | 1.0 | 3.0 | 0.00 | 0.00 | 0.00 | 99 | 1008.9 |
| 20260831210108 | 53 | 17 | 2.0 | 3.0 | 0.00 | 0.00 | 0.00 | 99 | 1008.8 |
| 20260831205313 | 53 | 7 | 2.0 | 3.0 | 0.00 | 0.00 | 0.00 | 99 | 1008.9 |
| 20260831204809 | 53 | 0 | 2.0 | 3.0 | 0.00 | 0.00 | 0.00 | 99 | 1008.7 |
| 20260831204304 | 53 | 2 | 2.0 | 4.0 | 0.00 | 0.00 | 0.00 | 99 | 1008.7 |
| 20260831203801 | 53 | 22 | 1.0 | 4.0 | 0.00 | 0.00 | 0.00 | 99 | 1008.5 |
| 20260831203256 | 53 | 346 | 2.0 | 4.0 | 0.00 | 0.00 | 0.00 | 99 | 1008.5 |
| 20260831202742 | 52 | 289 | 0.0 | 3.0 | 0.00 | 0.00 | 0.00 | 99 | 1008.4 |
| 20260831202237 | 52 | 5 | 1.0 | 3.0 | 0.00 | 0.00 | 0.00 | 99 | 1008.4 |
| 20260831201733 | 52 | 14 | 1.0 | 4.0 | 0.00 | 0.00 | 0.00 | 99 | 1008.4 |
| 20260831201230 | 51 | 13 | 2.0 | 4.0 | 0.00 | 0.00 | 0.00 | 99 | 1008.3 |
| 20260831200720 | 51 | 27 | 1.0 | 3.0 | 0.00 | 0.00 | 0.00 | 99 | 1008.3 |
| 20260831200220 | 51 | 2 | 2.0 | 3.0 | 0.00 | 0.00 | 0.00 | 99 | 1008.2 |
| 20260831195933 | 51 | 350 | 2.0 | 4.0 | 0.00 | 0.00 | 0.00 | 99 | 1008.2 |
| 20260831195659 | 51 | 9 | 3.0 | 4.0 | 0.00 | 0.00 | 0.00 | 99 | 1008.1 |
| 20260831194907 | 51 | 358 | 0.0 | 4.0 | 0.00 | 0.00 | 0.00 | 99 | 1008.0 |
| 20260831194142 | 52 | 354 | 3.0 | 4.0 | 0.00 | 0.00 | 0.00 | 99 | 1008.2 |
| 20260831193856 | 52 | 5 | 2.0 | 4.0 | 0.00 | 0.00 | 0.00 | 99 | 1008.1 |
| 20260831193113 | 52 | 18 | 2.0 | 4.0 | 0.00 | 0.00 | 0.00 | 99 | 1007.9 |
| 20260831192609 | 52 | 19 | 2.0 | 4.0 | 0.00 | 0.00 | 0.00 | 99 | 1008.0 |
| 20260831192312 | 52 | 33 | 0.0 | 3.0 | 0.00 | 0.00 | 0.00 | 98 | 1008.0 |
| 20260831191548 | 52 | 354 | 3.0 | 4.0 | 0.00 | 0.00 | 0.00 | 98 | 1008.0 |
| 20260831191046 | 52 | 352 | 3.0 | 4.0 | 0.00 | 0.00 | 0.00 | 98 | 1008.0 |
| 20260831190800 | 52 | 355 | 2.0 | 4.0 | 0.00 | 0.00 | 0.00 | 98 | 1007.8 |
| 20260831190013 | 51 | 2 | 2.0 | 4.0 | 0.00 | 0.00 | 0.00 | 98 | 1007.8 |
| 20260831185509 | 51 | 5 | 2.0 | 4.0 | 0.00 | 0.00 | 0.00 | 98 | 1007.7 |
| 20260831184955 | 51 | 48 | 1.0 | 4.0 | 0.00 | 0.00 | 0.00 | 98 | 1007.8 |
| 20260831184450 | 51 | 14 | 2.0 | 4.0 | 0.00 | 0.00 | 0.00 | 98 | 1007.7 |
| 20260831183946 | 51 | 15 | 2.0 | 3.0 | 0.00 | 0.00 | 0.00 | 98 | 1007.8 |
| 20260831183432 | 51 | 18 | 2.0 | 4.0 | 0.00 | 0.00 | 0.00 | 98 | 1007.7 |
| 20260831182928 | 51 | 21 | 2.0 | 4.0 | 0.00 | 0.00 | 0.00 | 98 | 1007.7 |
| 20260831182603 | 51 | 351 | 1.0 | 4.0 | 0.00 | 0.00 | 0.00 | 98 | 1007.7 |
| 20260831181404 | 51 | 340 | 3.0 | 4.0 | 0.00 | 0.00 | 0.00 | 98 | 1007.8 |
| 20260831180901 | 51 | 351 | 1.0 | 3.0 | 0.00 | 0.00 | 0.00 | 98 | 1007.8 |
| 20260831180358 | 51 | 1 | 2.0 | 3.0 | 0.00 | 0.00 | 0.00 | 98 | 1007.8 |
| 20260831175854 | 51 | 0 | 1.0 | 3.0 | 0.00 | 0.00 | 0.00 | 98 | 1007.6 |
| 20260831175346 | 51 | 20 | 1.0 | 3.0 | 0.00 | 0.00 | 0.00 | 98 | 1007.5 |
| 20260831174846 | 51 | 27 | 1.0 | 3.0 | 0.00 | 0.00 | 0.00 | 98 | 1007.7 |
| 20260831174610 | 51 | 17 | 0.0 | 4.0 | 0.00 | 0.00 | 0.00 | 98 | 1007.5 |
| 20260831173816 | 51 | 42 | 0.0 | 4.0 | 0.00 | 0.00 | 0.00 | 98 | 1007.5 |
| 20260831173312 | 51 | 349 | 3.0 | 4.0 | 0.00 | 0.00 | 0.00 | 98 | 1007.4 |
| 20260831173027 | 51 | 32 | 1.0 | 3.0 | 0.00 | 0.00 | 0.00 | 98 | 1007.6 |
| 20260831172244 | 51 | 5 | 2.0 | 3.0 | 0.00 | 0.00 | 0.00 | 98 | 1007.6 |
| 20260831171740 | 51 | 4 | 2.0 | 4.0 | 0.00 | 0.00 | 0.00 | 98 | 1007.4 |
| 20260831171228 | 51 | 350 | 2.0 | 4.0 | 0.00 | 0.00 | 0.00 | 98 | 1007.8 |
| 20260831170711 | 51 | 358 | 3.0 | 4.0 | 0.00 | 0.00 | 0.00 | 98 | 1007.7 |
| 20260831170158 | 51 | 188 | 1.0 | 3.0 | 0.00 | 0.00 | 0.00 | 98 | 1007.7 |
| 20260831165652 | 50 | 1 | 2.0 | 4.0 | 0.00 | 0.00 | 0.00 | 98 | 1007.9 |
| 20260831165149 | 50 | 15 | 1.0 | 4.0 | 0.00 | 0.00 | 0.00 | 98 | 1007.9 |
| 20260831164644 | 51 | 358 | 3.0 | 4.0 | 0.00 | 0.00 | 0.00 | 98 | 1007.8 |
| 20260831164144 | 51 | 1 | 3.0 | 4.0 | 0.00 | 0.00 | 0.00 | 98 | 1007.7 |
| 20260831163644 | 52 | 0 | 2.0 | 4.0 | 0.00 | 0.00 | 0.00 | 98 | 1007.9 |
| 20260831163344 | 51 | 15 | 2.0 | 4.0 | 0.00 | 0.00 | 0.00 | 98 | 1007.8 |
| 20260831162614 | 51 | 11 | 2.0 | 4.0 | 0.00 | 0.00 | 0.00 | 98 | 1007.8 |
| 20260831162115 | 52 | 11 | 2.0 | 4.0 | 0.00 | 0.00 | 0.00 | 98 | 1008.0 |
| 20260831161600 | 52 | 4 | 2.0 | 4.0 | 0.00 | 0.00 | 0.00 | 98 | 1008.2 |
| 20260831161045 | 52 | 22 | 2.0 | 4.0 | 0.00 | 0.00 | 0.00 | 98 | 1008.0 |
| 20260831160541 | 51 | 353 | 2.0 | 4.0 | 0.00 | 0.00 | 0.00 | 98 | 1008.0 |
| 20260831160038 | 52 | 357 | 2.0 | 4.0 | 0.00 | 0.00 | 0.00 | 98 | 1008.2 |
| 20260831155513 | 51 | 339 | 1.0 | 4.0 | 0.00 | 0.00 | 0.00 | 98 | 1008.3 |
| 20260831155211 | 52 | 359 | 2.0 | 4.0 | 0.00 | 0.00 | 0.00 | 98 | 1008.4 |
| 20260831154009 | 52 | 353 | 3.0 | 4.0 | 0.00 | 0.00 | 0.00 | 98 | 1008.8 |
| 20260831153506 | 52 | 341 | 3.0 | 4.0 | 0.00 | 0.00 | 0.00 | 98 | 1008.6 |
| 20260831152953 | 52 | 32 | 2.0 | 4.0 | 0.00 | 0.00 | 0.00 | 98 | 1008.7 |